Weather Roundup
Issued by NWS Chicago, IL

Home | Current Version | Previous Version | Graphics & Text | Print | Product List | Glossary On
Versions: 1 2 3 4 5 6 7 8 9 10 11 12 13 14 15 16 17 18 19 20 21 22 23 24 25 26 27 28 29 30 31 32 33 34 35 36 37 38 39 40 41 42 43 44 45 46 47 48 49 50
000
NZUS59 KLOT 021210
HRRLOT

CHICAGO AREA WEATHER ROUNDUP
NATIONAL WEATHER SERVICE CHICAGO/ROMEOVILLE IL
700 AM CDT THU OCT 02 2014

NOTE: "FAIR" INDICATES FEW OR NO CLOUDS BELOW 12,000 FEET WITH NO
SIGNIFICANT WEATHER AND/OR OBSTRUCTIONS TO VISIBILITY.

* THESE STATIONS ARE NOT UNDER NWS QUALITY CONTROL. THEY ALSO MAY NOT
  REPORT WEATHER SUCH AS PRECIPITATION OR FOG.

ILZ005-006-012>014-019>023-021300-
NORTHEAST ILLINOIS

CITY           SKY/WX    TMP DP  RH WIND       PRES   REMARKS
OHARE          CLOUDY    63  59  87 SE5       29.88S
6HR MIN TEMP:  63; 6HR MAX TEMP:  66; 6HR PCP: TRACE;

MIDWAY         CLOUDY    66  59  78 S5        29.88R
6HR MIN TEMP:  66; 6HR MAX TEMP:  68; 6HR PCP: TRACE;

AURORA         CLOUDY    64  61  90 SE3       29.87S FOG
6HR MIN TEMP:  63; 6HR MAX TEMP:  65; 6HR PCP:  0.01;

LANSING*       CLOUDY    64  58  82 S12G17    29.87F
JOLIET*        CLOUDY    64  62  91 CALM      29.87R
WAUKEGAN       CLOUDY    62  58  86 SE7       29.86S
DUPAGE AIRPORT CLOUDY    65  61  87 SE3       29.87S
6HR MIN TEMP:  63; 6HR MAX TEMP:  66; 6HR PCP:  0.01;

WHEELING       CLOUDY    65  58  78 S8        29.88S
6HR MIN TEMP:  63; 6HR MAX TEMP:  66; 6HR PCP: TRACE;

KANKAKEE*      CLOUDY    64  62  96 SE8       29.87F
MORRIS*        CLOUDY    65  65  99 CALM      29.85S
LEWIS AIRPORT* CLOUDY    64  61  88 S5        29.88R
NORTHERLY IS     N/A     64  57  78 S7          N/A
$$

WIZ051-052-058>065-066-070>072-021300-
SOUTHEAST WISCONSIN

CITY           SKY/WX    TMP DP  RH WIND       PRES   REMARKS
MILWAUKEE      CLOUDY    62  56  80 S6        29.86S
6HR MIN TEMP:  61; 6HR MAX TEMP:  63; 6HR PCP:  0.01;

RACINE*        CLOUDY    63  57  81 S13       29.88R
BURLINGTON     CLOUDY    58  56  94 CALM      29.86R
WAUKESHA       CLOUDY    59  57  94 SE6       29.86S FOG
WEST BEND      CLOUDY    59  55  88 E3        29.85S FOG
$$

INZ001>003-010>013-019-020-021300-
NORTHWEST INDIANA

CITY           SKY/WX    TMP DP  RH WIND       PRES   REMARKS
GARY*          MOCLDY    64  57  77 S14       29.88S
MICHIGAN CITY* NOT AVBL
RENSSELAER*    NOT AVBL
VALPARAISO     CLOUDY    62  56  80 SE13      29.92S
$$

LMZ740>746-021300-
SOUTHERN LAKE MICHIGAN

STATION/POSITION TIME  SKY/WX   TEMP WIND        PRES    VSBY
                                AIR  DIR/SP/G
                 (UTC)          (F)  (DEG/KT/KT) (MB)    (MI)
HARRISON CRIB    1200            64  170/ 15/ 17   N/A
BURNHAM HARBOR   1200            64  200/  3/  9   N/A
CALUMET HARBOR   1200            64  190/  5/  8 1010.8R
BURNS HARBOR     NOT AVBL
MICHIGAN CITY    1200            63  140/ 12/ 16   N/A
$$

ABBREVIATIONS USED IN REMARKS
   TC - TEMPERATURE IN CELSIUS
  WCI - WIND CHILL INDEX
   HX - HEAT INDEX
  VSB - VISIBILITY
$$


USA.gov is the U.S. government's official web portal to all federal, state and local government web resources and services.